DC7DOC Weather Reports


time (UTC)temp
C
wind
direction
speed
KPH
gust
KPH
rain 1hr
cm
rain 24hr
cm
rain mn
cm
humidity
%
barometer
mb
20260507075403 8 92 4.8 6.4 0.00 0.05 0.00 83 1017.6
20260507075203 7 92 4.8 8.0 0.00 0.05 0.00 83 1017.5
20260507075003 7 89 4.8 8.0 0.00 0.05 0.00 83 1017.8
20260507074803 7 95 4.8 6.4 0.00 0.08 0.00 83 1017.6
20260507074603 7 91 4.8 8.0 0.00 0.08 0.00 82 1017.6
20260507074403 7 85 4.8 8.0 0.00 0.08 0.00 83 1017.5
20260507074203 7 88 4.8 6.4 0.00 0.08 0.00 83 1017.6
20260507074018 7 89 4.8 11.3 0.00 0.08 0.00 83 1017.3
20260507074003 7 90 4.8 8.0 0.00 0.08 0.00 83 1017.3
20260507073603 7 90 4.8 6.4 0.00 0.08 0.00 83 1017.2
20260507073403 7 89 4.8 9.7 0.00 0.10 0.00 83 1017.6
20260507073203 7 89 4.8 9.7 0.00 0.10 0.00 84 1017.6
20260507073003 7 90 4.8 8.0 0.00 0.10 0.00 83 1017.5
20260507072816 7 88 4.8 4.8 0.00 0.10 0.00 83 1017.3
20260507072803 7 87 4.8 6.4 0.00 0.10 0.00 83 1017.3
20260507072403 7 81 4.8 6.4 0.00 0.10 0.00 84 1017.5
20260507072203 7 78 4.8 8.0 0.00 0.10 0.00 84 1017.2
20260507072003 7 77 4.8 6.4 0.00 0.10 0.00 84 1017.2
20260507071803 7 83 4.8 9.7 0.00 0.13 0.00 84 1017.3
20260507071603 7 84 4.8 6.4 0.00 0.13 0.00 83 1017.2
20260507071403 7 89 4.8 8.0 0.00 0.13 0.00 83 1017.3
20260507071203 7 90 4.8 6.4 0.00 0.13 0.00 84 1017.1
20260507071003 7 92 4.8 8.0 0.00 0.15 0.00 83 1017.4
20260507070816 7 89 4.8 6.4 0.00 0.15 0.00 84 1017.3
20260507070803 7 88 4.8 8.0 0.00 0.15 0.00 84 1017.3
20260507070403 7 88 4.8 6.4 0.00 0.15 0.00 85 1017.3
20260507070203 7 88 4.8 6.4 0.00 0.15 0.00 85 1017.4
20260507070005 7 82 4.8 6.4 0.00 0.18 0.00 85 1017.2
20260507065803 7 84 4.8 6.4 0.00 0.18 0.00 85 1017.2
20260507065603 7 83 4.8 6.4 0.00 0.18 0.00 85 1017.2
20260507065403 7 83 4.8 6.4 0.00 0.18 0.00 85 1017.2
20260507065203 7 84 4.8 8.0 0.00 0.18 0.00 85 1017.3
20260507065003 7 88 4.8 8.0 0.00 0.18 0.00 85 1017.1
20260507064803 7 84 4.8 6.4 0.00 0.20 0.00 86 1017.1
20260507064603 7 81 4.8 6.4 0.00 0.20 0.00 86 1017.3
20260507064403 7 82 4.8 6.4 0.00 0.20 0.00 85 1017.1
20260507064218 7 85 4.8 6.4 0.00 0.23 0.00 86 1016.9
20260507064203 7 85 4.8 6.4 0.00 0.23 0.00 86 1016.9
20260507063803 7 88 4.8 6.4 0.00 0.23 0.00 86 1017.0
20260507063603 7 90 4.8 6.4 0.00 0.25 0.00 86 1017.0
20260507063203 7 86 4.8 9.7 0.00 0.28 0.00 86 1017.1
20260507063003 7 81 4.8 8.0 0.00 0.28 0.00 86 1017.1
20260507062803 7 86 4.8 6.4 0.00 0.28 0.00 86 1016.9
20260507062603 7 87 4.8 8.0 0.00 0.30 0.00 86 1016.8
20260507062403 7 98 4.8 9.7 0.00 0.33 0.00 86 1016.9
20260507062218 7 97 4.8 8.0 0.00 0.33 0.00 86 1016.8
20260507062203 7 98 4.8 8.0 0.00 0.33 0.00 86 1016.8
20260507061803 7 100 4.8 4.8 0.00 0.36 0.00 87 1017.0
20260507061603 7 104 4.8 6.4 0.00 0.38 0.00 86 1016.9
20260507061418 7 101 4.8 6.4 0.00 0.38 0.00 86 1016.8
20260507061003 7 98 4.8 6.4 0.00 0.43 0.00 87 1016.6
20260507060803 7 98 4.8 9.7 0.00 0.43 0.00 86 1016.6
20260507060603 7 90 4.8 4.8 0.00 0.43 0.00 86 1016.5
20260507060403 7 89 4.8 6.4 0.00 0.43 0.00 87 1016.6
20260507060218 7 88 4.8 6.4 0.00 0.46 0.00 87 1016.6
20260507060203 7 88 4.8 9.7 0.00 0.46 0.00 87 1016.6
20260507055803 7 85 4.8 8.0 0.00 0.46 0.00 87 1016.5
20260507055603 7 85 4.8 6.4 0.00 0.46 0.00 87 1016.8
20260507055416 7 86 4.8 6.4 0.00 0.48 0.00 87 1016.6
20260507055403 7 87 4.8 6.4 0.00 0.48 0.00 87 1016.6
20260507055003 7 82 4.8 6.4 0.00 0.48 0.00 87 1016.5
20260507054803 7 81 4.8 6.4 0.00 0.48 0.00 87 1016.8
20260507054603 7 82 4.8 6.4 0.00 0.48 0.00 87 1016.5
20260507054403 7 76 4.8 6.4 0.00 0.48 0.00 87 1016.6
20260507054203 7 72 4.8 8.0 0.00 0.48 0.00 87 1016.5
20260507054003 7 73 4.8 6.4 0.00 0.48 0.00 87 1016.3
20260507053818 7 72 4.8 6.4 0.00 0.48 0.00 87 1016.5
20260507053803 7 71 4.8 6.4 0.00 0.48 0.00 87 1016.5
20260507053403 7 75 4.8 9.7 0.00 0.51 0.00 86 1016.3
20260507053203 7 78 4.8 6.4 0.00 0.51 0.00 86 1016.4
20260507052803 7 79 4.8 8.0 0.00 0.51 0.00 87 1016.3
20260507052603 7 78 4.8 6.4 0.00 0.51 0.00 87 1016.3
20260507052403 7 79 4.8 6.4 0.00 0.51 0.00 86 1016.3
20260507052203 7 77 4.8 9.7 0.00 0.51 0.00 86 1016.2
20260507052003 7 77 4.8 8.0 0.00 0.53 0.00 87 1016.2
20260507051803 7 77 4.8 9.7 0.00 0.53 0.00 87 1016.2
20260507051603 7 82 4.8 14.5 0.00 0.53 0.00 86 1016.2
20260507051404 7 81 4.8 6.4 0.00 0.53 0.00 87 1016.1
20260507051203 7 83 4.8 8.0 0.00 0.53 0.00 87 1016.2
20260507051003 7 82 4.8 4.8 0.00 0.53 0.00 87 1016.0
20260507050803 7 81 4.8 8.0 0.00 0.56 0.00 87 1016.3
20260507050603 7 77 4.8 4.8 0.00 0.56 0.00 87 1016.2
20260507050403 7 77 4.8 4.8 0.00 0.56 0.00 86 1015.9
20260507050203 7 78 4.8 6.4 0.00 0.56 0.00 87 1016.0
20260507050003 7 81 4.8 6.4 0.00 0.56 0.00 86 1015.9
20260507045803 7 84 4.8 6.4 0.00 0.56 0.00 87 1016.1
20260507045603 7 87 4.8 6.4 0.00 0.56 0.00 87 1016.0
20260507045403 7 86 4.8 6.4 0.00 0.58 0.00 87 1016.2
20260507045217 7 89 4.8 6.4 0.00 0.58 0.00 87 1016.0
20260507045203 7 90 4.8 6.4 0.00 0.58 0.00 87 1016.0
20260507044803 7 91 4.8 6.4 0.00 0.58 0.00 87 1015.8
20260507044603 7 92 4.8 6.4 0.00 0.61 0.00 87 1015.9
20260507044403 7 95 4.8 8.0 0.00 0.61 0.00 87 1015.9
20260507044003 7 94 4.8 4.8 0.00 0.61 0.00 87 1016.1
20260507043803 7 90 4.8 6.4 0.00 0.61 0.00 87 1015.8
20260507043603 7 84 4.8 6.4 0.00 0.61 0.00 87 1015.8
20260507043403 7 83 4.8 4.8 0.00 0.61 0.00 88 1015.8
20260507043203 7 82 4.8 6.4 0.00 0.61 0.00 88 1015.9
20260507043003 7 82 4.8 6.4 0.00 0.61 0.00 88 1015.9
20260507042803 7 86 4.8 6.4 0.00 0.64 0.00 88 1015.8
20260507042603 7 91 4.8 6.4 0.00 0.64 0.00 87 1015.8
20260507042403 7 91 4.8 6.4 0.00 0.64 0.00 88 1016.0
20260507042217 7 90 4.8 6.4 0.00 0.64 0.00 87 1015.8
20260507042203 7 90 4.8 6.4 0.00 0.64 0.00 88 1015.8
20260507042016 7 91 4.8 4.8 0.00 0.64 0.00 87 1015.8
20260507041603 7 81 4.8 6.4 0.00 0.64 0.00 87 1015.5
20260507041403 7 76 4.8 6.4 0.00 0.64 0.00 87 1015.8
20260507041203 7 77 4.8 6.4 0.00 0.66 0.00 88 1015.6
20260507041003 7 76 4.8 6.4 0.00 0.66 0.00 87 1015.5
20260507040803 7 81 4.8 9.7 0.00 0.66 0.00 87 1015.6
20260507040603 7 83 4.8 6.4 0.00 0.66 0.00 87 1015.6
20260507040403 7 86 4.8 8.0 0.00 0.66 0.00 87 1015.6
20260507040203 7 85 4.8 6.4 0.00 0.66 0.00 87 1015.5
20260507040018 7 87 4.8 4.8 0.00 0.66 0.00 87 1015.5
20260507040003 7 88 4.8 6.4 0.00 0.66 0.00 87 1015.5
20260507035603 7 86 4.8 8.0 0.00 0.66 0.00 87 1015.3
20260507035417 7 86 4.8 6.4 0.00 0.66 0.00 87 1015.8
20260507035018 7 86 4.8 8.0 0.00 0.66 0.00 87 1015.6
20260507035003 7 85 4.8 8.0 0.00 0.66 0.00 87 1015.6
20260507034603 7 85 4.8 4.8 0.00 0.69 0.00 87 1015.6
20260507034404 7 86 4.8 6.4 0.00 0.69 0.00 87 1015.5
20260507034203 7 86 4.8 4.8 0.00 0.69 0.00 87 1015.5
20260507034018 7 87 4.8 6.4 0.00 0.71 0.00 87 1015.5
20260507034003 7 88 4.8 6.4 0.00 0.71 0.00 87 1015.5
20260507033603 7 89 4.8 8.0 0.00 0.71 0.00 87 1015.5
20260507033403 7 85 4.8 6.4 0.00 0.71 0.00 87 1015.6
20260507033203 7 81 4.8 4.8 0.00 0.71 0.00 87 1015.7
20260507033003 7 80 4.8 8.0 0.00 0.71 0.00 87 1015.5
20260507032803 7 79 4.8 6.4 0.00 0.74 0.00 87 1015.6
20260507032603 7 76 4.8 6.4 0.00 0.74 0.00 87 1015.4
20260507032403 7 76 4.8 6.4 0.00 0.74 0.00 87 1015.4
20260507032203 7 79 4.8 6.4 0.00 0.74 0.00 87 1015.4
20260507031803 7 83 4.8 9.7 0.00 0.76 0.00 87 1015.4
20260507031603 7 87 4.8 6.4 0.00 0.76 0.00 86 1015.3
20260507031403 7 88 4.8 6.4 0.00 0.76 0.00 86 1015.4
20260507031203 7 88 4.8 6.4 0.00 0.76 0.00 86 1015.6
20260507031003 7 86 4.8 9.7 0.00 0.79 0.00 86 1015.3
20260507030803 7 83 4.8 6.4 0.00 0.79 0.00 86 1015.3
20260507030618 7 84 4.8 6.4 0.00 0.79 0.00 86 1015.4
20260507030603 7 84 4.8 6.4 0.00 0.79 0.00 87 1015.4
20260507030203 7 82 4.8 6.4 0.00 0.81 0.00 87 1015.5
20260507030003 7 78 4.8 4.8 0.00 0.81 0.00 87 1015.3
20260507025803 7 80 4.8 8.0 0.00 0.84 0.00 87 1015.3
20260507025603 7 79 4.8 9.7 0.00 0.84 0.00 87 1015.3
20260507025203 7 79 4.8 6.4 0.00 0.86 0.00 86 1015.3
20260507025003 7 83 4.8 6.4 0.00 0.86 0.00 86 1015.4
20260507024803 7 80 4.8 4.8 0.00 0.89 0.00 86 1015.2
20260507024603 7 78 4.8 6.4 0.00 0.89 0.00 86 1015.1
20260507024403 7 78 4.8 6.4 0.00 0.91 0.00 86 1015.3
20260507024203 7 81 4.8 6.4 0.00 0.94 0.00 86 1015.2
20260507024003 7 74 4.8 6.4 0.00 0.94 0.00 86 1015.3
20260507023803 7 74 4.8 6.4 0.00 0.97 0.00 86 1015.2
20260507023603 7 77 4.8 8.0 0.00 0.99 0.00 86 1015.5
20260507023417 7 79 4.8 4.8 0.00 0.99 0.00 86 1015.0
20260507023403 7 80 4.8 4.8 0.00 0.99 0.00 85 1015.0
20260507023003 7 87 4.8 8.0 0.00 1.04 0.00 85 1015.1
20260507022803 7 88 4.8 6.4 0.00 1.04 0.00 86 1015.1
20260507022603 7 89 4.8 6.4 0.00 1.07 0.00 86 1015.2
20260507022403 7 89 4.8 9.7 0.00 1.09 0.00 86 1014.9
20260507022203 7 86 4.8 6.4 0.00 1.09 0.00 86 1014.9
20260507022003 7 89 4.8 8.0 0.00 1.09 0.00 86 1015.0
20260507021804 7 92 4.8 9.7 0.00 1.12 0.00 86 1015.0
20260507021603 7 87 4.8 6.4 0.00 1.12 0.00 85 1014.9
20260507021404 7 87 4.8 4.8 0.00 1.14 0.00 86 1014.8
20260507021203 7 87 4.8 6.4 0.00 1.17 0.00 86 1015.0
20260507021003 7 82 4.8 6.4 0.00 1.19 0.00 86 1014.8
20260507020803 7 76 4.8 8.0 0.00 1.19 0.00 86 1015.2
20260507020603 7 75 4.8 6.4 0.00 1.22 0.00 86 1015.0
20260507020403 7 75 4.8 8.0 0.00 1.22 0.00 87 1014.9
20260507020203 7 74 4.8 6.4 0.00 1.24 0.00 86 1015.1
20260507020003 7 79 4.8 4.8 0.00 1.27 0.00 86 1014.9
20260507015803 7 79 4.8 9.7 0.00 1.27 0.00 86 1014.9
20260507015603 7 83 4.8 8.0 0.00 1.30 0.00 86 1014.9
20260507015403 7 82 4.8 4.8 0.00 1.32 0.00 87 1014.8
20260507015203 7 83 4.8 9.7 0.00 1.32 0.00 87 1014.8
20260507015003 7 83 4.8 6.4 0.00 1.35 0.00 87 1014.8
20260507014803 7 84 4.8 4.8 0.00 1.37 0.00 87 1014.8
20260507014603 7 82 4.8 4.8 0.00 1.37 0.00 86 1014.9
20260507014403 7 81 4.8 6.4 0.00 1.37 0.00 86 1014.8
20260507014203 7 81 4.8 11.3 0.00 1.40 0.00 86 1014.7
20260507014003 7 78 4.8 8.0 0.00 1.42 0.00 86 1014.8
20260507013803 7 81 4.8 11.3 0.00 1.42 0.00 86 1014.7
20260507013403 7 88 4.8 8.0 0.00 1.45 0.00 86 1014.7
20260507013203 7 86 4.8 6.4 0.00 1.45 0.00 86 1014.6
20260507013003 7 83 4.8 6.4 0.00 1.47 0.00 86 1014.5
20260507012803 7 82 4.8 6.4 0.00 1.47 0.00 86 1014.7
20260507012603 7 87 4.8 6.4 0.00 1.50 0.00 86 1014.3
20260507012403 7 81 4.8 8.0 0.00 1.50 0.00 86 1014.5
20260507012203 7 84 4.8 6.4 0.00 1.50 0.00 86 1014.8
20260507012003 7 88 4.8 6.4 0.00 1.52 0.00 86 1014.6
20260507011603 7 86 4.8 8.0 0.00 1.55 0.00 86 1014.7
20260507011403 7 92 4.8 4.8 0.00 1.55 0.00 86 1014.7
20260507011203 7 94 4.8 6.4 0.00 1.55 0.00 86 1014.9
20260507011017 7 96 4.8 6.4 0.00 1.57 0.00 86 1014.7
20260507010603 7 95 4.8 8.0 0.00 1.60 0.00 85 1014.9
20260507010403 7 94 4.8 8.0 0.00 1.60 0.00 85 1015.0
20260507010203 7 92 4.8 9.7 0.00 1.60 0.00 85 1014.9
20260507010003 7 87 4.8 8.0 0.00 1.60 0.00 85 1015.0
20260507005803 7 87 4.8 9.7 0.00 1.63 0.00 85 1015.0
20260507005603 7 84 4.8 6.4 0.00 1.63 0.00 85 1015.0
20260507005416 7 92 6.4 9.7 0.00 1.63 0.00 85 1014.9
20260507005403 7 93 6.4 9.7 0.00 1.63 0.00 85 1014.9
20260507005003 7 91 4.8 6.4 0.00 1.65 0.00 85 1014.9
20260507004803 7 93 4.8 9.7 0.00 1.65 0.00 86 1014.9
20260507004603 7 95 4.8 11.3 0.00 1.65 0.00 86 1014.7
20260507004416 7 87 4.8 12.9 0.00 1.65 0.00 86 1014.8
20260507004403 7 85 4.8 6.4 0.00 1.65 0.00 87 1014.8
20260507004003 7 85 4.8 6.4 0.00 1.65 0.00 86 1014.7
20260507003603 8 78 4.8 9.7 0.00 1.68 0.00 86 1014.7
20260507003403 8 81 4.8 6.4 0.00 1.68 0.00 87 1014.5
20260507003203 8 84 4.8 6.4 0.00 1.70 0.00 87 1014.7
20260507003017 8 83 4.8 4.8 0.00 1.70 0.00 87 1014.6
20260507003003 8 82 4.8 4.8 0.00 1.70 0.00 87 1014.6
20260507002603 8 85 4.8 6.4 0.00 1.70 0.00 86 1014.4
20260507002403 8 83 4.8 8.0 0.00 1.70 0.00 87 1014.3
20260507002003 8 87 4.8 9.7 0.00 1.73 0.00 87 1014.3
20260507001803 8 87 4.8 8.0 0.00 1.73 0.00 87 1014.5
20260507001603 8 86 4.8 6.4 0.00 1.73 0.00 87 1014.4
20260507001403 8 86 4.8 6.4 0.00 1.73 0.00 87 1014.4
20260507001203 8 87 4.8 16.1 0.00 1.73 0.00 86 1014.2
20260507001003 8 86 4.8 8.0 0.00 1.75 0.00 87 1013.8
20260507000803 8 87 4.8 8.0 0.00 1.75 0.00 87 1014.1
20260507000603 8 87 4.8 6.4 0.00 1.75 0.00 87 1013.8
20260507000405 8 90 4.8 4.8 0.00 1.75 0.00 87 1014.0
20260507000205 8 94 4.8 6.4 0.00 1.75 0.00 87 1014.0
20260507000003 8 90 4.8 6.4 0.00 1.75 0.00 88 1014.1
20260506235803 8 94 4.8 6.4 0.00 1.75 0.00 87 1014.2
20260506235603 8 96 4.8 6.4 0.00 1.75 0.00 87 1014.0
20260506235403 8 97 4.8 8.0 0.00 1.75 0.00 87 1014.2
20260506235203 8 97 4.8 4.8 0.00 1.78 0.00 87 1014.1
20260506235003 8 98 4.8 9.7 0.00 1.78 0.00 87 1014.0
20260506234818 8 94 4.8 8.0 0.00 1.78 0.00 87 1013.9
20260506234803 8 95 4.8 8.0 0.00 1.78 0.00 87 1013.9
20260506234418 9 94 4.8 6.4 0.00 1.78 0.00 87 1014.0
20260506234403 9 93 4.8 6.4 0.00 1.78 0.00 87 1014.0
20260506234003 9 89 4.8 6.4 0.00 1.78 0.00 87 1013.9
20260506233803 9 93 6.4 6.4 0.00 1.78 0.00 87 1013.7
20260506233603 9 86 6.4 8.0 0.00 1.78 0.00 86 1013.8
20260506233418 9 85 6.4 9.7 0.00 1.78 0.00 86 1013.9
20260506233403 9 87 6.4 8.0 0.00 1.78 0.00 86 1013.9
20260506233217 9 87 6.4 11.3 0.00 1.78 0.00 86 1013.9
20260506232803 9 83 4.8 6.4 0.00 1.78 0.00 86 1013.8
20260506232603 9 90 4.8 8.0 0.00 1.78 0.00 86 1013.7
20260506232403 10 84 4.8 8.0 0.00 1.78 0.00 86 1013.8
20260506232217 10 81 4.8 4.8 0.00 1.78 0.00 86 1013.8
20260506232203 10 82 4.8 6.4 0.00 1.78 0.00 86 1013.8
20260506231803 10 86 4.8 6.4 0.00 1.80 0.00 86 1013.8
20260506231403 10 83 4.8 6.4 0.00 1.80 0.00 86 1013.7
20260506231203 10 82 4.8 6.4 0.00 1.80 0.00 86 1013.8
20260506231003 10 79 4.8 4.8 0.00 1.80 0.00 86 1013.6
20260506230803 10 78 4.8 8.0 0.00 1.80 0.00 86 1013.7
20260506230617 10 78 4.8 6.4 0.00 1.80 0.00 86 1013.8
20260506230603 10 79 4.8 6.4 0.00 1.80 0.00 86 1013.8
20260506230203 10 81 4.8 6.4 0.00 1.80 0.00 86 1013.9
20260506230003 10 79 4.8 6.4 0.00 1.80 0.00 86 1013.8
20260506225803 10 76 4.8 8.0 0.00 1.83 0.00 87 1013.8
20260506225603 10 84 4.8 6.4 0.00 1.83 0.00 86 1013.6
20260506225403 10 84 4.8 6.4 0.00 1.83 0.00 86 1013.6
20260506225203 10 84 4.8 6.4 0.00 1.83 0.00 87 1013.9
20260506225018 10 86 4.8 8.0 0.00 1.83 0.00 87 1013.7
20260506225003 10 88 4.8 8.0 0.00 1.83 0.00 87 1013.7
20260506224817 10 92 4.8 8.0 0.00 1.83 0.00 86 1013.6
20260506224403 10 82 4.8 6.4 0.00 1.83 0.00 86 1013.7
20260506224203 10 86 4.8 6.4 0.00 1.83 0.00 87 1013.7
20260506224003 10 88 4.8 6.4 0.00 1.83 0.00 87 1013.7
20260506223803 10 89 4.8 4.8 0.00 1.83 0.00 87 1013.8
20260506223616 10 88 4.8 6.4 0.00 1.83 0.00 87 1013.5
20260506223603 10 89 4.8 6.4 0.00 1.83 0.00 87 1013.5
20260506223203 10 86 4.8 6.4 0.00 1.83 0.00 87 1013.5
20260506223003 10 88 4.8 8.0 0.00 1.83 0.00 88 1013.7
20260506222803 10 87 4.8 6.4 0.00 1.83 0.00 88 1013.4
20260506222603 10 90 4.8 6.4 0.00 1.83 0.00 88 1013.5
20260506222403 10 86 4.8 6.4 0.00 1.83 0.00 88 1013.6
20260506222203 10 88 4.8 9.7 0.00 1.83 0.00 88 1013.6
20260506222003 10 83 4.8 6.4 0.00 1.83 0.00 87 1013.6
20260506221803 10 83 4.8 6.4 0.00 1.83 0.00 87 1013.3
20260506221603 10 83 4.8 6.4 0.00 1.83 0.00 88 1013.4
20260506221403 10 85 4.8 6.4 0.00 1.83 0.00 87 1013.4
20260506221217 10 89 4.8 6.4 0.00 1.83 0.00 88 1013.5
20260506221203 10 88 4.8 6.4 0.00 1.83 0.00 88 1013.5
20260506220803 10 87 4.8 6.4 0.00 1.83 0.00 88 1013.4
20260506220603 10 83 4.8 6.4 0.00 1.83 0.00 88 1013.4
20260506220417 10 82 4.8 6.4 0.00 1.83 0.00 88 1013.7
20260506220403 10 83 4.8 6.4 0.00 1.83 0.00 88 1013.7
20260506220219 10 79 4.8 6.4 0.00 1.83 0.00 89 1013.5
20260506220018 10 79 4.8 4.8 0.00 1.83 0.00 89 1013.6
20260506215603 10 84 4.8 4.8 0.00 1.83 1.83 89 1013.5
20260506215403 10 83 4.8 6.4 0.00 1.83 1.83 89 1013.5
20260506215003 10 80 4.8 6.4 0.00 1.83 1.83 89 1013.8
20260506214803 10 81 4.8 4.8 0.00 1.83 1.83 89 1013.8
20260506214403 10 80 4.8 6.4 0.00 1.83 1.83 89 1013.7
20260506214003 10 85 4.8 6.4 0.00 1.83 1.83 89 1013.8
20260506213803 10 82 4.8 6.4 0.00 1.83 1.83 89 1013.6
20260506213603 10 88 4.8 4.8 0.00 1.83 1.83 89 1013.7
20260506213403 10 90 4.8 6.4 0.00 1.83 1.83 89 1013.6
20260506213203 10 89 4.8 4.8 0.00 1.83 1.83 89 1013.6
20260506213003 10 89 4.8 6.4 0.00 1.83 1.83 89 1013.5
20260506212603 10 88 4.8 6.4 0.00 1.83 1.83 90 1013.8
20260506212403 10 85 4.8 6.4 0.00 1.83 1.83 90 1013.5
20260506212203 10 83 4.8 6.4 0.00 1.83 1.83 90 1013.6
20260506212003 10 83 4.8 6.4 0.00 1.83 1.83 90 1013.3
20260506211803 10 84 4.8 8.0 0.00 1.83 1.83 90 1013.5
20260506211618 10 84 4.8 4.8 0.00 1.83 1.83 90 1013.4
20260506211603 10 83 4.8 6.4 0.00 1.83 1.83 90 1013.4
20260506211203 10 85 4.8 6.4 0.00 1.83 1.83 90 1013.5
20260506211003 10 82 4.8 8.0 0.00 1.83 1.83 90 1013.6
20260506210803 10 79 4.8 4.8 0.00 1.83 1.83 90 1013.6
20260506210618 10 77 4.8 3.2 0.00 1.83 1.83 90 1013.4
20260506210603 10 77 4.8 4.8 0.00 1.83 1.83 90 1013.4
20260506210203 10 77 4.8 8.0 0.00 1.83 1.83 90 1013.3
20260506205803 10 83 4.8 6.4 0.00 1.83 1.83 89 1013.4
20260506205403 10 82 4.8 6.4 0.00 1.83 1.83 90 1013.5
20260506205203 10 81 4.8 4.8 0.00 1.83 1.83 90 1013.5
20260506205003 10 77 4.8 6.4 0.00 1.83 1.83 90 1013.4
20260506204803 10 77 4.8 6.4 0.00 1.83 1.83 90 1013.4
20260506204603 10 77 4.8 4.8 0.00 1.83 1.83 89 1013.2
20260506204403 10 79 4.8 6.4 0.00 1.83 1.83 89 1013.2
20260506204203 10 82 4.8 6.4 0.00 1.83 1.83 89 1013.1
20260506204003 10 83 4.8 4.8 0.00 1.83 1.83 89 1013.2
20260506203803 10 86 4.8 6.4 0.00 1.83 1.83 88 1013.2
20260506203403 10 85 4.8 6.4 0.00 1.83 1.83 88 1013.1
20260506203203 10 83 4.8 6.4 0.00 1.83 1.83 87 1013.3
20260506203003 10 83 4.8 8.0 0.00 1.83 1.83 87 1013.0
20260506202803 10 81 4.8 4.8 0.00 1.83 1.83 88 1013.1
20260506202603 10 80 4.8 6.4 0.00 1.83 1.83 88 1013.1
20260506202403 10 83 4.8 4.8 0.00 1.83 1.83 88 1013.1
20260506202203 10 85 4.8 6.4 0.00 1.83 1.83 88 1013.0
20260506202003 10 82 4.8 6.4 0.00 1.83 1.83 87 1013.2
20260506201803 10 82 4.8 6.4 0.00 1.83 1.83 88 1013.1
20260506201603 10 88 4.8 8.0 0.00 1.83 1.83 88 1013.3
20260506201403 10 85 4.8 6.4 0.00 1.83 1.83 88 1013.1
20260506201203 10 86 4.8 6.4 0.00 1.83 1.83 88 1012.9
20260506201003 10 87 4.8 8.0 0.00 1.83 1.83 88 1013.0
20260506200816 10 86 4.8 9.7 0.00 1.83 1.83 87 1013.0
20260506200803 10 86 4.8 9.7 0.00 1.83 1.83 88 1013.0
20260506200403 10 79 4.8 4.8 0.00 1.83 1.83 87 1012.8
20260506200003 10 80 4.8 4.8 0.00 1.83 1.83 87 1012.8
20260506195803 10 80 4.8 6.4 0.00 1.83 1.83 87 1012.8
20260506195603 10 84 4.8 4.8 0.00 1.83 1.83 88 1013.0
20260506195403 10 87 4.8 6.4 0.00 1.83 1.83 87 1012.9
20260506195203 10 86 4.8 6.4 0.00 1.83 1.83 87 1012.9
20260506195017 10 90 4.8 4.8 0.00 1.83 1.83 87 1013.2
20260506195004 10 91 4.8 4.8 0.00 1.83 1.83 87 1013.2
20260506194603 10 88 4.8 6.4 0.00 1.83 1.83 86 1012.9
20260506194403 10 86 4.8 4.8 0.00 1.83 1.83 86 1013.0
20260506194203 10 86 4.8 4.8 0.00 1.83 1.83 86 1013.1
20260506194003 10 82 4.8 6.4 0.00 1.83 1.83 87 1013.1
20260506193803 10 85 4.8 8.0 0.00 1.83 1.83 87 1012.9
20260506193603 10 89 4.8 6.4 0.00 1.83 1.83 87 1012.8
20260506193403 10 87 4.8 4.8 0.00 1.83 1.83 88 1012.8
20260506193203 10 87 4.8 6.4 0.00 1.83 1.83 88 1013.0
20260506193017 10 89 4.8 8.0 0.00 1.83 1.83 88 1013.0
20260506193003 10 90 4.8 8.0 0.00 1.83 1.83 87 1013.0
20260506192603 10 82 4.8 6.4 0.00 1.83 1.83 88 1013.1
20260506192403 10 85 4.8 4.8 0.00 1.83 1.83 88 1013.0
20260506192203 10 86 4.8 6.4 0.00 1.83 1.83 88 1013.0
20260506192003 10 80 4.8 6.4 0.00 1.83 1.83 88 1013.0
20260506191803 10 78 4.8 4.8 0.00 1.83 1.83 88 1012.9
20260506191617 10 78 4.8 6.4 0.00 1.83 1.83 88 1012.8
20260506191603 10 79 4.8 6.4 0.00 1.83 1.83 88 1012.8
20260506191203 11 79 4.8 6.4 0.00 1.83 1.83 87 1012.8
20260506191003 11 84 4.8 6.4 0.00 1.83 1.83 87 1012.9
20260506190803 11 87 4.8 6.4 0.00 1.83 1.83 87 1012.7
20260506190603 11 87 4.8 6.4 0.00 1.83 1.83 87 1012.8
20260506190403 11 85 4.8 6.4 0.00 1.83 1.83 86 1012.6
20260506190003 11 80 4.8 6.4 0.00 1.83 1.83 87 1012.8
20260506185803 11 77 4.8 4.8 0.00 1.83 1.83 87 1012.8
20260506185617 11 78 4.8 6.4 0.00 1.83 1.83 87 1012.8
20260506185603 11 79 4.8 6.4 0.00 1.83 1.83 87 1012.8
20260506185203 11 78 4.8 8.0 0.00 1.83 1.83 87 1012.9
20260506185003 11 74 4.8 6.4 0.00 1.83 1.83 87 1012.8
20260506184803 11 73 4.8 8.0 0.00 1.83 1.83 86 1012.6
20260506184603 11 71 4.8 4.8 0.00 1.83 1.83 86 1012.7
20260506184403 11 73 4.8 6.4 0.00 1.83 1.83 86 1012.6
20260506184217 11 74 4.8 8.0 0.00 1.83 1.83 86 1012.5
20260506184203 11 75 4.8 8.0 0.00 1.83 1.83 87 1012.5
20260506183803 11 82 4.8 4.8 0.00 1.83 1.83 88 1012.5
20260506183403 11 85 4.8 6.4 0.00 1.83 1.83 88 1012.3
20260506183203 11 86 4.8 6.4 0.00 1.83 1.83 87 1012.2
20260506183003 11 86 4.8 8.0 0.00 1.83 1.83 87 1012.2
20260506182803 11 88 4.8 6.4 0.00 1.83 1.83 87 1012.3
20260506182603 11 85 4.8 4.8 0.00 1.83 1.83 87 1012.2
20260506182403 11 82 4.8 6.4 0.00 1.83 1.83 87 1012.2
20260506182203 11 83 4.8 4.8 0.00 1.83 1.83 86 1012.3
20260506182003 12 80 4.8 6.4 0.00 1.83 1.83 86 1012.2
20260506181803 12 83 4.8 4.8 0.00 1.83 1.83 87 1012.3
20260506181603 12 87 4.8 4.8 0.00 1.83 1.83 86 1012.3
20260506181403 12 92 4.8 9.7 0.00 1.83 1.83 85 1012.1
20260506181203 12 93 4.8 8.0 0.00 1.83 1.83 86 1012.0
20260506181003 12 96 4.8 6.4 0.00 1.83 1.83 86 1012.2
20260506180803 12 98 4.8 6.4 0.00 1.83 1.83 86 1012.1
20260506180603 12 98 4.8 6.4 0.00 1.83 1.83 86 1011.8
20260506180403 12 96 4.8 8.0 0.00 1.83 1.83 85 1011.9
20260506180203 12 95 4.8 8.0 0.00 1.83 1.83 86 1011.9
20260506180004 12 94 4.8 6.4 0.00 1.83 1.83 85 1011.9
20260506175803 12 93 4.8 4.8 0.00 1.83 1.83 85 1011.9
20260506175603 12 86 4.8 6.4 0.00 1.83 1.83 85 1011.8
20260506175403 12 86 4.8 6.4 0.00 1.83 1.83 85 1011.8
20260506175203 12 86 4.8 4.8 0.00 1.83 1.83 85 1011.8
20260506175016 12 82 4.8 6.4 0.00 1.83 1.83 85 1011.7
20260506175003 12 83 4.8 6.4 0.00 1.83 1.83 85 1011.7
20260506174603 12 87 4.8 9.7 0.00 1.83 1.83 84 1012.0
20260506174403 12 85 4.8 9.7 0.00 1.83 1.83 85 1012.0
20260506174203 12 83 4.8 6.4 0.00 1.83 1.83 86 1012.2
20260506174003 12 82 4.8 6.4 0.00 1.83 1.83 85 1011.8
20260506173803 12 80 4.8 4.8 0.00 1.83 1.83 86 1011.7
20260506173603 12 77 4.8 6.4 0.00 1.83 1.83 86 1011.9
20260506173404 12 78 4.8 6.4 0.00 1.83 1.83 85 1011.8
20260506173203 12 79 4.8 4.8 0.00 1.83 1.83 85 1011.9
20260506173003 12 79 4.8 6.4 0.00 1.83 1.83 86 1012.2
20260506172803 12 83 4.8 6.4 0.00 1.83 1.83 86 1011.8
20260506172603 12 84 4.8 6.4 0.00 1.83 1.83 85 1012.1
20260506172403 12 81 4.8 4.8 0.00 1.83 1.83 85 1012.2
20260506172203 12 79 4.8 6.4 0.00 1.83 1.83 85 1012.1
20260506172003 12 80 4.8 4.8 0.00 1.83 1.83 85 1012.0
20260506171803 12 76 4.8 6.4 0.00 1.83 1.83 85 1012.1
20260506171603 12 77 4.8 6.4 0.00 1.83 1.83 85 1011.9
20260506171403 12 81 4.8 6.4 0.00 1.83 1.83 85 1012.2
20260506171003 12 86 4.8 6.4 0.00 1.83 1.83 85 1011.8
20260506170803 12 87 4.8 6.4 0.00 1.83 1.83 85 1011.6
20260506170603 12 87 4.8 6.4 0.00 1.83 1.83 84 1011.7
20260506170203 12 81 4.8 6.4 0.00 1.83 1.83 84 1011.7
20260506170003 12 77 4.8 6.4 0.00 1.83 1.83 85 1011.6
20260506165817 12 75 4.8 6.4 0.00 1.83 1.83 84 1011.6
20260506165803 12 75 4.8 8.0 0.00 1.83 1.83 84 1011.6
20260506165403 12 76 4.8 4.8 0.00 1.83 1.83 85 1011.6
20260506165203 12 77 4.8 6.4 0.00 1.83 1.83 85 1011.8
20260506165003 12 81 4.8 8.0 0.00 1.83 1.83 85 1011.6
20260506164803 12 84 4.8 6.4 0.00 1.83 1.83 84 1011.5
20260506164603 12 84 4.8 8.0 0.00 1.83 1.83 85 1011.5
20260506164203 12 81 4.8 6.4 0.00 1.83 1.83 86 1011.3
20260506164003 12 82 4.8 6.4 0.00 1.83 1.83 85 1011.5
20260506163803 12 78 4.8 6.4 0.00 1.83 1.83 86 1011.7
20260506163603 12 76 4.8 8.0 0.00 1.83 1.83 85 1011.5
20260506163403 12 81 4.8 8.0 0.00 1.83 1.83 85 1011.8
20260506163203 12 82 4.8 8.0 0.00 1.83 1.83 86 1011.7
20260506163003 12 82 4.8 6.4 0.00 1.83 1.83 85 1011.6
20260506162817 13 90 4.8 6.4 0.00 1.83 1.83 85 1011.6
20260506162803 13 91 4.8 6.4 0.00 1.83 1.83 85 1011.6
20260506162618 13 95 4.8 9.7 0.00 1.83 1.83 85 1011.5
20260506162203 13 97 4.8 4.8 0.00 1.83 1.83 86 1011.6
20260506162003 13 95 4.8 8.0 0.00 1.83 1.83 85 1011.5
20260506161803 13 87 4.8 8.0 0.00 1.83 1.83 85 1011.6
20260506161603 13 81 4.8 4.8 0.00 1.83 1.83 85 1011.5
20260506161403 13 78 4.8 4.8 0.00 1.83 1.83 85 1011.5
20260506161203 12 77 4.8 4.8 0.00 1.83 1.83 85 1011.4
20260506161004 12 79 4.8 4.8 0.00 1.83 1.83 84 1011.5
20260506160803 13 74 4.8 6.4 0.00 1.83 1.83 84 1011.5
20260506160603 13 78 4.8 8.0 0.00 1.83 1.83 84 1011.6
20260506160403 13 76 4.8 6.4 0.00 1.83 1.83 84 1011.8
20260506160203 13 78 4.8 6.4 0.00 1.83 1.83 84 1011.6
20260506160003 13 80 4.8 9.7 0.00 1.83 1.83 83 1011.6
20260506155803 13 87 4.8 6.4 0.00 1.83 1.83 84 1011.5
20260506155618 13 86 4.8 6.4 0.00 1.83 1.83 84 1011.7
20260506155603 13 87 4.8 6.4 0.00 1.83 1.83 84 1011.7
20260506155216 13 87 4.8 6.4 0.00 1.83 1.83 83 1011.7
20260506155203 13 85 4.8 6.4 0.00 1.83 1.83 83 1011.7
20260506154817 13 83 4.8 4.8 0.00 1.83 1.83 83 1011.5
20260506154803 13 83 4.8 6.4 0.00 1.83 1.83 83 1011.5
20260506154403 13 81 4.8 4.8 0.00 1.83 1.83 85 1011.7
20260506154203 13 84 4.8 6.4 0.00 1.83 1.83 86 1011.7
20260506154017 13 83 4.8 6.4 0.00 1.83 1.83 85 1011.4
20260506154003 13 82 4.8 6.4 0.00 1.83 1.83 85 1011.4
20260506153603 13 76 4.8 4.8 0.00 1.83 1.83 86 1011.6
20260506153417 13 78 4.8 6.4 0.00 1.83 1.83 86 1011.6
20260506153403 13 77 4.8 6.4 0.00 1.83 1.83 86 1011.6
20260506153003 13 82 4.8 6.4 0.00 1.83 1.83 86 1011.8
20260506152803 13 88 4.8 9.7 0.00 1.83 1.83 85 1011.6
20260506152618 13 94 4.8 8.0 0.00 1.83 1.83 85 1012.0
20260506152603 13 93 4.8 8.0 0.00 1.83 1.83 85 1012.0
20260506152203 13 90 4.8 6.4 0.00 1.83 1.83 86 1012.0
20260506152003 13 88 4.8 9.7 0.00 1.83 1.83 85 1011.6
20260506151803 13 87 4.8 6.4 0.00 1.83 1.83 85 1011.7
20260506151603 13 86 4.8 8.0 0.00 1.83 1.83 86 1011.8
20260506151403 13 81 4.8 6.4 0.00 1.83 1.83 85 1011.9
20260506151203 13 87 4.8 8.0 0.00 1.83 1.83 85 1011.7
20260506151003 13 90 4.8 6.4 0.00 1.83 1.83 85 1011.8
20260506150803 13 93 4.8 6.4 0.00 1.83 1.83 85 1011.7
20260506150603 13 88 4.8 6.4 0.00 1.83 1.83 85 1011.6
20260506150203 13 90 4.8 6.4 0.00 1.83 1.83 84 1011.8
20260506150003 13 86 4.8 6.4 0.00 1.83 1.83 83 1011.6
20260506145803 13 84 4.8 6.4 0.00 1.83 1.83 84 1011.7
20260506145603 13 89 4.8 6.4 0.00 1.83 1.83 84 1011.9
20260506145403 13 91 4.8 6.4 0.00 1.83 1.83 82 1011.7
20260506145203 14 92 4.8 6.4 0.00 1.83 1.83 84 1011.9
20260506145003 14 94 4.8 6.4 0.00 1.83 1.83 82 1011.8
20260506144803 13 94 4.8 8.0 0.00 1.83 1.83 85 1011.7
20260506144617 13 95 4.8 6.4 0.00 1.83 1.83 85 1011.7
20260506144603 13 94 4.8 6.4 0.00 1.83 1.83 85 1011.7
20260506144203 12 85 4.8 8.0 0.00 1.83 1.83 87 1011.8
20260506144017 12 84 4.8 8.0 0.00 1.83 1.83 87 1011.9
20260506144003 12 85 4.8 8.0 0.00 1.83 1.83 87 1011.9
20260506143603 12 84 4.8 9.7 0.00 1.83 1.83 88 1012.0
20260506143403 12 87 4.8 8.0 0.00 1.83 1.83 88 1011.8
20260506143203 12 90 4.8 4.8 0.00 1.83 1.83 88 1012.1
20260506143003 12 91 4.8 6.4 0.00 1.83 1.83 88 1012.0
20260506142803 12 88 4.8 4.8 0.00 1.83 1.83 88 1011.8
20260506142603 12 86 4.8 6.4 0.00 1.83 1.83 89 1011.9
20260506142403 12 86 4.8 6.4 0.00 1.83 1.83 89 1011.7
20260506142218 12 85 4.8 6.4 0.00 1.83 1.83 88 1011.7
20260506142203 12 85 4.8 6.4 0.00 1.83 1.83 88 1011.7
20260506141803 13 86 4.8 4.8 0.00 1.83 1.83 88 1011.6
20260506141617 13 88 4.8 4.8 0.00 1.83 1.83 88 1011.7
20260506141603 13 87 4.8 4.8 0.00 1.83 1.83 88 1011.7
20260506141203 13 91 4.8 6.4 0.00 1.83 1.83 86 1011.8
20260506141003 13 90 4.8 4.8 0.00 1.83 1.83 88 1011.8
20260506140803 13 92 4.8 4.8 0.00 1.83 1.83 87 1011.8
20260506140603 13 95 4.8 6.4 0.00 1.83 1.83 86 1011.7
20260506140403 13 92 4.8 8.0 0.00 1.83 1.83 86 1011.8
20260506140203 13 88 4.8 6.4 0.00 1.83 1.83 88 1011.9
20260506140003 13 85 4.8 8.0 0.00 1.83 1.83 88 1011.8
20260506135803 13 89 4.8 6.4 0.00 1.83 1.83 87 1011.7
20260506135603 12 88 4.8 8.0 0.00 1.83 1.83 87 1011.8
20260506135403 12 92 4.8 6.4 0.00 1.83 1.83 86 1011.9
20260506135218 12 92 4.8 6.4 0.00 1.83 1.83 87 1011.7
20260506135203 12 92 4.8 6.4 0.00 1.83 1.83 87 1011.7
20260506134803 13 86 4.8 12.9 0.00 1.83 1.83 86 1011.8
20260506134603 13 87 4.8 9.7 0.00 1.83 1.83 86 1011.9
20260506134403 13 81 4.8 4.8 0.00 1.83 1.83 87 1011.7
20260506134218 13 85 4.8 8.0 0.00 1.83 1.83 87 1011.6
20260506134203 13 86 4.8 8.0 0.00 1.83 1.83 87 1011.6
20260506133803 12 93 4.8 6.4 0.00 1.83 1.83 88 1011.6
20260506133603 12 89 4.8 6.4 0.00 1.83 1.83 87 1011.8
20260506133403 13 94 4.8 8.0 0.00 1.83 1.83 87 1011.5
20260506133203 12 91 4.8 6.4 0.00 1.83 1.83 87 1011.6
20260506133003 13 91 4.8 8.0 0.00 1.83 1.83 86 1011.8
20260506132803 13 89 4.8 9.7 0.00 1.83 1.83 87 1011.6
20260506132603 13 92 4.8 12.9 0.00 1.83 1.83 86 1011.6
20260506132416 13 93 4.8 8.0 0.00 1.83 1.83 85 1011.6
20260506132403 13 92 4.8 8.0 0.00 1.83 1.83 86 1011.6
20260506132003 13 88 4.8 6.4 0.00 1.83 1.83 86 1011.5
20260506131803 13 90 4.8 6.4 0.00 1.83 1.83 85 1011.3
20260506131603 13 92 4.8 8.0 0.00 1.83 1.83 84 1011.3
20260506131403 13 92 4.8 6.4 0.00 1.83 1.83 86 1011.6
20260506131203 13 94 4.8 11.3 0.00 1.83 1.83 85 1011.8
20260506131003 13 98 4.8 6.4 0.00 1.83 1.83 85 1011.7
20260506130803 13 97 4.8 8.0 0.00 1.83 1.83 85 1011.5
20260506130617 13 95 4.8 6.4 0.00 1.83 1.83 86 1011.8
20260506130603 13 95 4.8 6.4 0.00 1.83 1.83 86 1011.8
20260506130217 12 91 4.8 8.0 0.00 1.83 1.83 87 1011.6
20260506130203 12 91 4.8 8.0 0.00 1.83 1.83 87 1011.6
20260506130016 12 91 4.8 6.4 0.00 1.83 1.83 88 1011.7
20260506125603 12 89 4.8 6.4 0.00 1.83 1.83 88 1011.8
20260506125418 12 85 4.8 6.4 0.00 1.83 1.83 87 1011.6
20260506125403 12 85 4.8 8.0 0.00 1.83 1.83 87 1011.6
20260506125003 12 90 4.8 6.4 0.00 1.83 1.83 87 1011.7
20260506124803 12 88 4.8 4.8 0.00 1.83 1.83 88 1011.7
20260506124603 12 87 4.8 6.4 0.00 1.83 1.83 90 1011.8
20260506124403 12 88 4.8 6.4 0.00 1.83 1.83 89 1011.8
20260506124203 12 85 4.8 8.0 0.00 1.83 1.83 88 1011.7
20260506124003 12 81 4.8 6.4 0.00 1.83 1.83 88 1011.8
20260506123803 12 82 4.8 6.4 0.00 1.83 1.83 88 1011.6
20260506123603 12 82 4.8 6.4 0.00 1.83 1.83 89 1011.6
20260506123403 12 81 4.8 6.4 0.00 1.83 1.83 89 1011.7
20260506123217 12 76 4.8 6.4 0.00 1.83 1.83 89 1011.5
20260506123203 12 76 4.8 6.4 0.00 1.83 1.83 89 1011.5
20260506122803 12 70 4.8 4.8 0.00 1.83 1.83 89 1011.7
20260506122603 12 72 4.8 6.4 0.00 1.83 1.83 88 1011.8
20260506122403 12 71 4.8 9.7 0.00 1.83 1.83 87 1011.7
20260506122203 12 79 4.8 4.8 0.00 1.83 1.83 88 1011.9
20260506122003 12 79 4.8 9.7 0.00 1.83 1.83 87 1011.9
20260506121803 12 89 4.8 8.0 0.00 1.83 1.83 88 1011.6
20260506121603 12 85 4.8 6.4 0.00 1.83 1.83 89 1011.7
20260506121403 12 84 4.8 6.4 0.00 1.83 1.83 87 1011.8
20260506121203 12 83 4.8 8.0 0.00 1.83 1.83 88 1011.4
20260506121003 12 86 4.8 8.0 0.00 1.83 1.83 88 1011.7
20260506120803 12 84 4.8 6.4 0.00 1.83 1.83 88 1011.8
20260506120603 12 85 4.8 6.4 0.00 1.83 1.83 89 1011.6
20260506120403 12 88 4.8 8.0 0.00 1.83 1.83 89 1011.5
20260506120203 12 85 4.8 4.8 0.00 1.83 1.83 89 1011.8
20260506120003 12 87 4.8 8.0 0.00 1.83 1.83 89 1011.6
20260506115803 12 82 4.8 8.0 0.00 1.83 1.83 89 1011.6
20260506115616 12 85 4.8 8.0 0.00 1.83 1.83 90 1011.6
20260506115603 12 85 4.8 9.7 0.00 1.83 1.83 89 1011.6
20260506115203 12 88 4.8 6.4 0.00 1.83 1.83 90 1011.4
20260506114803 12 94 4.8 4.8 0.00 1.83 1.83 91 1011.7
20260506114603 12 95 4.8 8.0 0.00 1.83 1.83 90 1011.4
20260506114418 12 95 4.8 6.4 0.00 1.83 1.83 91 1011.6
20260506114403 12 96 4.8 6.4 0.00 1.83 1.83 91 1011.6
20260506114003 12 95 4.8 6.4 0.00 1.83 1.83 90 1011.7
20260506113803 12 92 4.8 6.4 0.00 1.83 1.83 91 1011.6
20260506113603 12 92 4.8 9.7 0.00 1.83 1.83 91 1011.3
20260506113403 12 91 4.8 6.4 0.00 1.83 1.83 91 1011.4
20260506113203 12 94 4.8 4.8 0.00 1.83 1.83 92 1011.6
20260506113003 12 95 4.8 6.4 0.00 1.83 1.83 92 1011.7
20260506112803 12 94 4.8 6.4 0.00 1.83 1.83 92 1011.3
20260506112603 12 93 4.8 6.4 0.00 1.83 1.83 92 1011.3
20260506112403 12 90 4.8 6.4 0.00 1.83 1.83 92 1011.4
20260506112203 11 85 4.8 4.8 0.00 1.83 1.83 92 1011.3
20260506112003 11 86 4.8 6.4 0.00 1.83 1.83 92 1011.5
20260506111803 11 88 4.8 6.4 0.00 1.83 1.83 92 1011.0
20260506111603 11 89 4.8 6.4 0.00 1.83 1.83 92 1011.3
20260506111403 11 89 4.8 6.4 0.00 1.83 1.83 92 1011.4
20260506111203 11 92 4.8 6.4 0.00 1.83 1.83 92 1011.3
20260506111003 11 92 4.8 6.4 0.00 1.83 1.83 93 1011.4
20260506110803 11 90 4.8 6.4 0.00 1.83 1.83 92 1011.2
20260506110603 11 89 4.8 4.8 0.00 1.83 1.83 92 1011.2
20260506110403 11 91 4.8 9.7 0.00 1.83 1.83 92 1011.3
20260506110203 11 91 4.8 6.4 0.00 1.83 1.83 92 1011.0
20260506110003 11 87 4.8 4.8 0.00 1.83 1.83 92 1011.0
20260506105803 12 89 4.8 4.8 0.00 1.83 1.83 93 1011.1
20260506105603 12 89 4.8 6.4 0.00 1.83 1.83 93 1011.2
20260506105403 12 89 4.8 8.0 0.00 1.83 1.83 93 1011.0
20260506105203 12 88 4.8 6.4 0.00 1.83 1.83 93 1011.0
20260506105018 11 93 4.8 6.4 0.00 1.83 1.83 93 1011.0
20260506105003 11 93 4.8 6.4 0.00 1.83 1.83 93 1011.0
20260506104817 11 91 4.8 4.8 0.00 1.83 1.83 93 1011.3
20260506104403 11 92 4.8 6.4 0.00 1.83 1.83 93 1011.0
20260506104216 11 93 4.8 6.4 0.00 1.83 1.83 93 1011.0
20260506104203 11 92 4.8 6.4 0.00 1.83 1.83 93 1011.0
20260506103803 11 94 4.8 6.4 0.00 1.83 1.83 93 1011.0
20260506103603 11 96 4.8 6.4 0.00 1.83 1.83 93 1010.9
20260506103417 11 95 4.8 6.4 0.00 1.83 1.83 92 1011.2
20260506103403 11 95 4.8 8.0 0.00 1.83 1.83 92 1011.2
20260506103003 11 93 4.8 6.4 0.00 1.83 1.83 93 1011.0
20260506102803 12 94 4.8 9.7 0.00 1.83 1.83 93 1010.8
20260506102603 12 91 4.8 6.4 0.00 1.83 1.83 93 1011.0
20260506102203 11 95 4.8 4.8 0.00 1.83 1.83 93 1011.0
20260506102003 11 93 6.4 8.0 0.00 1.83 1.83 93 1010.8
20260506101803 11 92 6.4 6.4 0.00 1.83 1.83 93 1010.9
20260506101603 11 92 6.4 11.3 0.00 1.83 1.83 93 1010.6
20260506101417 11 94 6.4 8.0 0.00 1.83 1.83 93 1010.7
20260506101403 11 93 6.4 8.0 0.00 1.83 1.83 93 1010.7
20260506101216 11 94 4.8 6.4 0.00 1.83 1.83 93 1010.8
20260506100803 11 97 4.8 9.7 0.00 1.83 1.83 93 1010.7
20260506100603 11 98 4.8 8.0 0.00 1.83 1.83 93 1010.9
20260506100417 11 97 4.8 6.4 0.00 1.83 1.83 93 1010.8
20260506100403 11 96 4.8 6.4 0.00 1.83 1.83 93 1010.8
20260506100003 12 97 4.8 11.3 0.00 1.83 1.83 94 1010.9
20260506095817 12 96 4.8 4.8 0.00 1.83 1.83 94 1010.7
20260506095803 11 96 4.8 6.4 0.00 1.83 1.83 94 1010.7
20260506095417 12 98 4.8 4.8 0.00 1.83 1.83 94 1010.9
20260506095403 12 98 4.8 4.8 0.00 1.83 1.83 94 1010.9
20260506095003 11 95 4.8 6.4 0.00 1.83 1.83 94 1010.5
20260506094803 11 93 4.8 6.4 0.00 1.83 1.83 94 1010.6
20260506094603 11 93 4.8 6.4 0.00 1.83 1.83 94 1010.7
20260506094417 11 89 4.8 6.4 0.00 1.83 1.83 94 1010.6
20260506094403 11 89 4.8 6.4 0.00 1.83 1.83 94 1010.6
20260506094218 11 90 4.8 6.4 0.00 1.83 1.83 94 1010.8
20260506093816 11 91 3.2 8.0 0.03 1.83 1.83 94 1010.7
20260506093803 11 91 3.2 8.0 0.03 1.83 1.83 94 1010.7
20260506093403 11 96 4.8 4.8 0.03 1.83 1.83 94 1010.7
20260506093203 11 100 4.8 4.8 0.03 1.83 1.83 94 1010.5
20260506093003 11 101 4.8 6.4 0.03 1.83 1.83 94 1010.5
20260506092803 11 100 4.8 8.0 0.03 1.83 1.83 95 1010.5
20260506092603 11 101 4.8 6.4 0.03 1.83 1.83 95 1010.5
20260506092417 11 101 4.8 9.7 0.05 1.83 1.83 95 1010.5
20260506092403 11 102 4.8 9.7 0.05 1.83 1.83 95 1010.5
20260506092003 11 103 4.8 6.4 0.05 1.83 1.83 95 1010.7
20260506091803 11 102 4.8 9.7 0.05 1.83 1.83 95 1010.4
20260506091603 11 98 4.8 6.4 0.05 1.83 1.83 94 1010.4
20260506091403 11 94 4.8 8.0 0.05 1.83 1.83 94 1010.4
20260506091218 11 90 4.8 6.4 0.05 1.83 1.83 95 1010.2
20260506091203 11 88 4.8 6.4 0.05 1.83 1.83 95 1010.2
20260506090803 11 89 4.8 6.4 0.05 1.83 1.83 95 1010.4
20260506090603 11 94 4.8 8.0 0.05 1.83 1.83 95 1010.2
20260506090403 11 94 4.8 6.4 0.05 1.83 1.83 95 1010.6
20260506090203 11 97 4.8 8.0 0.05 1.83 1.83 95 1010.5
20260506090003 11 96 4.8 6.4 0.05 1.83 1.83 94 1010.4
20260506085803 11 96 4.8 8.0 0.05 1.83 1.83 95 1010.3
20260506085603 11 94 4.8 8.0 0.05 1.83 1.83 95 1010.1
20260506085403 11 94 4.8 6.4 0.05 1.83 1.83 95 1010.3
20260506085203 11 91 4.8 8.0 0.05 1.83 1.83 95 1010.2
20260506085003 11 96 4.8 6.4 0.05 1.83 1.80 95 1010.2
20260506084803 11 93 4.8 6.4 0.05 1.83 1.80 96 1010.1
20260506084603 11 96 4.8 6.4 0.05 1.83 1.80 96 1010.1
20260506084403 11 98 4.8 6.4 0.08 1.83 1.80 96 1010.0
20260506084203 11 99 4.8 8.0 0.08 1.83 1.80 96 1010.0
20260506084003 11 99 4.8 6.4 0.05 1.80 1.80 96 1010.0
20260506083803 11 103 4.8 6.4 0.05 1.80 1.80 96 1010.1
20260506083603 11 98 4.8 6.4 0.05 1.80 1.80 96 1010.1
20260506083403 11 101 4.8 6.4 0.08 1.80 1.80 96 1010.0
20260506083217 11 103 4.8 6.4 0.05 1.80 1.78 96 1010.0
20260506083203 11 101 4.8 6.4 0.05 1.80 1.78 96 1010.0
20260506083017 11 103 4.8 6.4 0.05 1.80 1.78 96 1010.2
20260506082603 11 106 4.8 6.4 0.08 1.80 1.78 96 1010.1
20260506082416 11 102 4.8 6.4 0.05 1.78 1.78 96 1010.2
20260506082403 11 102 4.8 6.4 0.05 1.78 1.78 96 1010.2
20260506082003 11 99 4.8 8.0 0.08 1.78 1.78 96 1009.9
20260506081803 11 98 4.8 6.4 0.08 1.78 1.78 96 1010.1
20260506081603 11 98 4.8 4.8 0.08 1.78 1.78 96 1010.2
20260506081403 11 97 4.8 6.4 0.08 1.78 1.78 96 1010.0
20260506081217 11 96 4.8 8.0 0.08 1.78 1.78 96 1010.0
20260506081203 11 96 4.8 9.7 0.08 1.78 1.78 96 1010.0
20260506080803 11 95 4.8 6.4 0.10 1.78 1.78 96 1010.1
20260506080603 11 95 4.8 4.8 0.10 1.78 1.78 96 1010.2
20260506080417 11 97 4.8 6.4 0.10 1.78 1.78 96 1010.1
20260506080403 11 98 4.8 6.4 0.10 1.78 1.78 96 1010.1